Regional Weather Roundup
Issued by NWS

Home | Current Version | Previous Version | Text Only | Print | Product List | Glossary Off
Versions: 1 2 3 4 5 6 7 8 9 10 11 12 13 14 15 16 17 18 19 20 21 22 23 24 25 26 27 28 29 30 31 32 33 34 35 36 37 38 39 40 41 42 43 44 45 46 47 48 49 50

000
ASUS43 KMPX 262310
RWRMN
WEATHER ROUNDUP FOR MINNESOTA
NATIONAL WEATHER SERVICE TWIN CITIES/CHANHASSEN MN
500 PM CST FRI DEC 26 2014


NOTE: "FAIR" INDICATES FEW OR NO CLOUDS BELOW 12,000 FEET WITH NO
SIGNIFICANT WEATHER AND/OR OBSTRUCTIONS TO VISIBILITY. N/A MEANS
CURRENT SKY AND/OR WEATHER CONDITIONS ARE NOT AVAILABLE.

MNZ060>063-068>070-270000-
   Twin Cities Metro

CITY           SKY/WX    TMP DP  RH WIND       PRES   REMARKS
TWIN CITIES    CLOUDY    31  24  75 N13       30.06R WCI  21
ST PAUL        CLOUDY    32  26  78 N6        30.07R WCI  26
CRYSTAL        CLOUDY    32  25  75 N9        30.05R WCI  24
BLAINE         CLOUDY    32  28  86 N9        30.05R WCI  24
LAKEVILLE      CLOUDY    30  27  86 N9G16     30.03S WCI  22
EDEN PRAIRIE   CLOUDY    31  24  75 N10       30.04R WCI  22
SOUTH ST PAUL  CLOUDY    32  27  80 N5        30.05R WCI  27
LAKE ELMO      CLOUDY    32  28  86 N9        30.06R WCI  24
$$
MNZ001>005-007-008-013>017-022>024-027-028-270000-
   Northwest Minnesota

CITY           SKY/WX    TMP DP  RH WIND       PRES   REMARKS
BEMIDJI        FLURRIES  22  16  77 N6        30.12S WCI  14
HALLOCK        FLURRIES  10   7  85 NW10      30.22R WCI  -3
ROSEAU         FLURRIES  18  10  73 W7        30.17R WCI   8
WARROAD        FLURRIES  18  12  79 NW8       30.17R WCI   7
THIEF RVR FALL CLOUDY    16  10  79 NW10      30.19R WCI   3
CROOKSTON      PTCLDY    14  10  85 NW10      30.23R WCI   1
FOSSTON        FLURRIES  18  14  86 NW10      30.16R WCI   6
DETROIT LAKES  MOCLDY    23  19  86 N6        30.14R WCI  16
MOORHEAD       LGT RAIN  21  19  93 N14       30.19S WCI   8
PARK RAPIDS    CLOUDY    24  16  71 NW9       30.10R WCI  14
MAHNOMEN       FLURRIES  20  17  88 NW12      30.16R WCI   7
$$
MNZ006-009>011-018-025>026-270000-
   North Central Minnesota

CITY           SKY/WX    TMP DP  RH WIND       PRES   REMARKS
BAUDETTE       CLOUDY    19  12  74 N7        30.14R WCI  10
FLAG ISLAND    CLOUDY    14   9  79 N10       30.15S WCI   1
INTL FALLS     CLOUDY    21  16  81 NW5       30.12R WCI  15
WASKISH        FLURRIES  21  16  79 CALM      30.14R
BIG FORK       FLURRIES  21  16  79 NW3       30.12R
LONGVILLE      CLOUDY    21  18  86 N6        30.11R WCI  14
GRAND RAPIDS   CLOUDY    23  16  74 N10       30.09R WCI  12
CRANE LAKE     CLOUDY    21  19  93 NW5       30.13R WCI  15
ORR            FLURRIES  21  18  86 CALM      30.08R
COOK           FLURRIES  23  19  86 NW6       30.09S WCI  16
WALKER         CLOUDY    22  15  74 N3        30.11R
$$
MNZ012-019>021-037-270000-
   Northeast Minnesota

CITY           SKY/WX    TMP DP  RH WIND       PRES   REMARKS
DULUTH         CLOUDY    28  21  75 N7        30.06R WCI  21
ELY            CLOUDY    25  19  80 NW5       30.07R WCI  19
HIBBING        CLOUDY    25  18  74 NW9       30.08R WCI  15
EVELETH        CLOUDY    27  19  74 N5        30.09R WCI  21
DULUTH HARBOR  CLOUDY    34  25  69 CALM      30.11R
TWO HARBORS    CLOUDY    32  25  74 CALM      30.05R
SILVER BAY     CLOUDY    30  21  69 N5        30.05  WCI  25
GRAND MARAIS     N/A     32  22  66 N7        30.07S WCI  26
G MARAIS ARPRT CLOUDY    25  19  80 N3        30.03R
$$
MNZ029>031-032-039>041-046>048-054>057-064-270000-
   West Central Minnesota

CITY           SKY/WX    TMP DP  RH WIND       PRES   REMARKS
FERGUS FALLS   CLOUDY    23  16  74 N13G18    30.16S WCI  11
WHEATON        CLOUDY    21  18  86 N14       30.16R WCI   8
MORRIS         CLOUDY    25  21  86 N16       30.10R WCI  12
ALEXANDRIA     CLOUDY    25  19  78 N12       30.08S WCI  14
ELBOW LAKE     CLOUDY    23  18  82 N16       30.11S WCI   9
WADENA         CLOUDY    23  19  86 N12       30.10R WCI  12
GLENWOOD       CLOUDY    25  19  80 N9        30.09R WCI  15
APPLETON       CLOUDY    27  21  80 N10       30.12R WCI  17
BENSON         CLOUDY    27  21  80 N10       30.12R WCI  17
ORTONVILLE     CLOUDY    25  18  74 N14G20    30.14R WCI  13
MADISON        CLOUDY    28  25  86 N9        30.12R WCI  20
WILLMAR        CLOUDY    28  21  74 N12       30.10R WCI  18
$$
MNZ033>034-036-042>043-049>051-058-059-270000-
   Central Minnesota

CITY           SKY/WX    TMP DP  RH WIND       PRES   REMARKS
ST CLOUD       CLOUDY    31  21  66 N7        30.08R WCI  24
SAUK CENTRE    CLOUDY    26  20  79 N9        30.09R WCI  16
PAYNESVILLE    CLOUDY    25  20  80 NW8       30.08S WCI  16
AITKIN         CLOUDY    28  19  69 N8        30.07S WCI  20
PINE RIVER     CLOUDY    23  18  80 NW8       30.14R WCI  14
BRAINERD       CLOUDY    25  18  74 N12       30.09S WCI  14
STAPLES        CLOUDY    25  18  74 N13       30.09S WCI  13
LONG PRAIRIE   CLOUDY    25  19  80 NW8       30.09R WCI  16
LITTLE FALLS   CLOUDY    28  19  69 NW5       30.10R WCI  23
LITCHFIELD     CLOUDY    28  25  86 N10       30.08R WCI  19
BUFFALO        CLOUDY    30  24  78 N5        30.08R WCI  25
MAPLE LAKE     CLOUDY    30  27  86 N9        30.08R WCI  22
$$
MNZ037-044-045-052-053-270000-
   East Central Minnesota

CITY           SKY/WX    TMP DP  RH WIND       PRES   REMARKS
PRINCETON      CLOUDY    30  25  80 N8        30.08R WCI  23
MORA           CLOUDY    28  21  74 VRB3      30.09R
CAMBRIDGE      CLOUDY    32  23  69 N6        30.06R WCI  26
RUSH CITY      CLOUDY    30  25  81 N7        30.07R WCI  23
MOOSE LAKE     CLOUDY    30  23  74 N6        30.07R WCI  24
HINCKLEY       CLOUDY    32  25  74 CALM      30.07R
CLOQUET        CLOUDY    28  21  74 N7        30.07R WCI  21
MCGREGOR       CLOUDY    28  21  74 N8        30.08S WCI  20
$$
MNZ071>073-080-081-089-090-097-098-270000-
   Southwest Minnesota

CITY           SKY/WX    TMP DP  RH WIND       PRES   REMARKS
MONTEVIDEO     CLOUDY    27  23  86 NE12      30.11S WCI  16
GRANITE FALLS  CLOUDY    27  23  85 N12       30.11R WCI  16
CANBY          CLOUDY    25  22  90 N10       30.13R WCI  14
MARSHALL       CLOUDY    25  19  80 N15       30.08S WCI  12
REDWOOD FALLS  CLOUDY    29  23  78 N12G18    30.07S WCI  19
OLIVIA         CLOUDY    28  25  86 N10       30.08R WCI  19
PIPESTONE      LGT SNOW  25  21  86 N13       30.05R WCI  13
WINDOM         CLOUDY    28  27  93 N14       30.03R WCI  17
WORTHINGTON    CLOUDY    27 -20  12 N14       30.05R WCI  15
JACKSON        CLOUDY    30  27  86 N10       30.04R WCI  21
TRACY          CLOUDY    27  25  91 N12       30.06S WCI  17
SLAYTON        CLOUDY    25  23  95 N16       30.04R WCI  12
$$
MNZ065>067-074>077-082>085-091>093-270000-
   South Central Minnesota

CITY           SKY/WX    TMP DP  RH WIND       PRES   REMARKS
MANKATO        CLOUDY    30  25  80 N17       30.02S WCI  18
NEW ULM        CLOUDY    28  25  86 N7        30.05S WCI  21
ST JAMES       CLOUDY    30  27  86 N13       30.04F WCI  20
FAIRMONT       CLOUDY    30  25  80 N15       30.03R WCI  19
GLENCOE        CLOUDY    31  27  86 N12       30.05R WCI  22
FARIBAULT      CLOUDY    30  28  93 N12       30.02S WCI  21
OWATONNA       CLOUDY    30  28  93 N14       30.01R WCI  20
WASECA         CLOUDY    32  28  86 N10       30.03R WCI  24
ALBERT LEA     CLOUDY    32  30  93 N12       30.00R FOG     WCI  23
$$
MNZ078>079-086>088-094>096-270000-
   Southeast Minnesota

CITY           SKY/WX    TMP DP  RH WIND       PRES   REMARKS
ROCHESTER      CLOUDY    32  29  88 N12       29.98R WCI  23
RED WING       CLOUDY    34  28  80 N7        30.01F WCI  28
STANTON        CLOUDY    32  28  85 N14       30.01S WCI  22
DODGE CENTER   CLOUDY    32  30  93 N12       29.99R WCI  23
WINONA         CLOUDY    36  32  87 N3        30.01R
AUSTIN         CLOUDY    32  30  93 N10       29.99R WCI  24
PRESTON        CLOUDY    32  31  94 N6        29.98S FOG     WCI  26
$$
ABBREVIATIONS USED IN REMARKS
   TC - TEMPERATURES IN CELSIUS
  WCI - WIND CHILL INDEX
   HX - HEAT INDEX
  VSB - VISIBILITY
$$


USA.gov is the U.S. government's official web portal to all federal, state and local government web resources and services.